Previsão horária em Alimtau

Hoje, 25 Junho, Sexta-feira

Tempo Temperatura Precipitação Vento Pressão Humidade
00:00 +27°C° 0 mm 3 m/s 721 mmHg 34%
01:00 +26°C° 0 mm 3 m/s 721 mmHg 37%
02:00 +25°C° 0 mm 2 m/s 720 mmHg 40%
03:00 +24°C° 0 mm 2 m/s 720 mmHg 42%
04:00 +23°C° 0 mm 2 m/s 720 mmHg 45%
05:00 +21°C° 0 mm 2 m/s 720 mmHg 48%
06:00 +24°C° 0 mm 2 m/s 720 mmHg 42%
07:00 +26°C° 0 mm 2 m/s 721 mmHg 37%
08:00 +28°C° 0 mm 3 m/s 721 mmHg 32%
09:00 +30°C° 0 mm 3 m/s 721 mmHg 28%
10:00 +32°C° 0 mm 4 m/s 721 mmHg 24%
11:00 +34°C° 0 mm 4 m/s 721 mmHg 20%
12:00 +35°C° 0 mm 4 m/s 721 mmHg 18%
13:00 +36°C° 0 mm 4 m/s 721 mmHg 16%
14:00 +36°C° 0 mm 5 m/s 720 mmHg 14%
15:00 +36°C° 0 mm 5 m/s 720 mmHg 13%
16:00 +36°C° 0 mm 6 m/s 720 mmHg 12%
17:00 +35°C° 0 mm 7 m/s 720 mmHg 11%
18:00 +33°C° 0 mm 7 m/s 720 mmHg 13%
19:00 +32°C° 0 mm 8 m/s 720 mmHg 14%
20:00 +29°C° 0 mm 8 m/s 720 mmHg 16%
21:00 +27°C° 0 mm 7 m/s 720 mmHg 18%
22:00 +26°C° 0 mm 6 m/s 720 mmHg 20%
23:00 +24°C° 0 mm 6 m/s 720 mmHg 22%

Amanhã, 26 Junho, Sábado

Tempo Temperatura Precipitação Vento Pressão Humidade
00:00 +23°C° 0 mm 5 m/s 720 mmHg 24%
01:00 +22°C° 0 mm 4 m/s 720 mmHg 26%
02:00 +20°C° 0 mm 4 m/s 720 mmHg 28%
03:00 +20°C° 0 mm 3 m/s 720 mmHg 29%
04:00 +19°C° 0 mm 3 m/s 720 mmHg 30%
05:00 +19°C° 0 mm 3 m/s 720 mmHg 32%
06:00 +21°C° 0 mm 3 m/s 720 mmHg 28%
07:00 +24°C° 0 mm 3 m/s 721 mmHg 24%
08:00 +27°C° 0 mm 3 m/s 721 mmHg 21%
09:00 +28°C° 0 mm 3 m/s 721 mmHg 19%
10:00 +30°C° 0 mm 3 m/s 721 mmHg 17%
11:00 +32°C° 0 mm 2 m/s 721 mmHg 14%
12:00 +35°C° 0 mm 3 m/s 721 mmHg 13%
13:00 +36°C° 0 mm 3 m/s 721 mmHg 12%
14:00 +37°C° 0 mm 4 m/s 720 mmHg 10%
15:00 +37°C° 0 mm 4 m/s 720 mmHg 10%
16:00 +37°C° 0 mm 5 m/s 720 mmHg 10%
17:00 +37°C° 0 mm 5 m/s 720 mmHg 10%
18:00 +36°C° 0 mm 6 m/s 720 mmHg 12%
19:00 +34°C° 0 mm 6 m/s 720 mmHg 13%
20:00 +32°C° 0 mm 7 m/s 720 mmHg 15%
21:00 +29°C° 0 mm 6 m/s 719 mmHg 17%
22:00 +28°C° 0 mm 5 m/s 719 mmHg 18%
23:00 +26°C° 0 mm 4 m/s 719 mmHg 20%

Depois de amanhã, 27 Junho, Domingo

Tempo Temperatura Precipitação Vento Pressão Humidade
00:00 +25°C° 0 mm 4 m/s 719 mmHg 21%
01:00 +24°C° 0 mm 3 m/s 719 mmHg 22%
02:00 +24°C° 0 mm 2 m/s 719 mmHg 23%
03:00 +23°C° 0 mm 2 m/s 719 mmHg 24%
04:00 +23°C° 0 mm 2 m/s 719 mmHg 24%
05:00 +23°C° 0 mm 1 m/s 719 mmHg 25%
06:00 +25°C° 0 mm 2 m/s 720 mmHg 22%
07:00 +28°C° 0 mm 3 m/s 720 mmHg 19%
08:00 +30°C° 0 mm 3 m/s 720 mmHg 16%
09:00 +33°C° 0 mm 3 m/s 720 mmHg 14%
10:00 +35°C° 0 mm 3 m/s 720 mmHg 12%
11:00 +37°C° 0 mm 3 m/s 720 mmHg 11%
12:00 +38°C° 0 mm 3 m/s 720 mmHg 10%
13:00 +40°C° 0 mm 3 m/s 720 mmHg 8%
14:00 +42°C° 0 mm 3 m/s 720 mmHg 7%
15:00 +42°C° 0 mm 3 m/s 720 mmHg 7%
16:00 +41°C° 0 mm 2 m/s 719 mmHg 7%
17:00 +41°C° 0 mm 2 m/s 719 mmHg 6%
18:00 +39°C° 0 mm 2 m/s 719 mmHg 8%
19:00 +37°C° 0 mm 2 m/s 719 mmHg 9%
20:00 +34°C° 0 mm 2 m/s 719 mmHg 11%
21:00 +32°C° 0 mm 2 m/s 719 mmHg 12%
22:00 +30°C° 0 mm 2 m/s 719 mmHg 14%
23:00 +29°C° 0 mm 2 m/s 719 mmHg 16%

28 Junho, Segunda-feira

Tempo Temperatura Precipitação Vento Pressão Humidade
00:00 +28°C° 0 mm 1 m/s 719 mmHg 16%
01:00 +28°C° 0 mm 1 m/s 719 mmHg 17%
02:00 +27°C° 0 mm 1 m/s 719 mmHg 17%
03:00 +27°C° 0 mm 1 m/s 719 mmHg 17%
04:00 +27°C° 0 mm 1 m/s 719 mmHg 17%
05:00 +26°C° 0 mm 1 m/s 719 mmHg 18%
06:00 +29°C° 0 mm 1 m/s 719 mmHg 16%
07:00 +31°C° 0 mm 1 m/s 720 mmHg 13%
08:00 +34°C° 0 mm 1 m/s 720 mmHg 11%
09:00 +36°C° 0 mm 1 m/s 720 mmHg 10%
10:00 +39°C° 0 mm 2 m/s 720 mmHg 9%
11:00 +41°C° 0 mm 2 m/s 720 mmHg 8%
12:00 +43°C° 0 mm 3 m/s 720 mmHg 8%
13:00 +44°C° 0 mm 3 m/s 719 mmHg 8%
14:00 +45°C° 0 mm 4 m/s 719 mmHg 7%
15:00 +45°C° 0 mm 4 m/s 719 mmHg 7%
16:00 +45°C° 0 mm 4 m/s 719 mmHg 7%
17:00 +46°C° 0 mm 5 m/s 719 mmHg 7%
18:00 +42°C° 0 mm 4 m/s 719 mmHg 9%
19:00 +40°C° 0 mm 4 m/s 718 mmHg 10%
20:00 +37°C° 0 mm 4 m/s 718 mmHg 11%
21:00 +35°C° 0 mm 3 m/s 718 mmHg 12%
22:00 +33°C° 0 mm 3 m/s 718 mmHg 13%
23:00 +30°C° 0 mm 2 m/s 718 mmHg 15%

29 Junho, Terça-feira

Tempo Temperatura Precipitação Vento Pressão Humidade
00:00 +30°C° 0 mm 2 m/s 718 mmHg 16%
01:00 +29°C° 0 mm 2 m/s 718 mmHg 17%
02:00 +29°C° 0 mm 2 m/s 718 mmHg 19%
03:00 +29°C° 0 mm 2 m/s 718 mmHg 19%
04:00 +29°C° 0 mm 2 m/s 718 mmHg 20%
05:00 +28°C° 0 mm 1 m/s 718 mmHg 20%
06:00 +31°C° 0 mm 2 m/s 718 mmHg 18%
07:00 +34°C° 0 mm 2 m/s 719 mmHg 16%
08:00 +37°C° 0 mm 2 m/s 719 mmHg 14%
09:00 +39°C° 0 mm 2 m/s 719 mmHg 13%
10:00 +40°C° 0 mm 2 m/s 719 mmHg 11%
11:00 +42°C° 0 mm 2 m/s 719 mmHg 10%
12:00 +44°C° 0 mm 3 m/s 719 mmHg 9%
13:00 +45°C° 0 mm 4 m/s 718 mmHg 8%
14:00 +47°C° 0 mm 5 m/s 718 mmHg 7%
15:00 +47°C° 0 mm 5 m/s 718 mmHg 7%
16:00 +47°C° 0 mm 6 m/s 718 mmHg 6%
17:00 +46°C° 0 mm 7 m/s 717 mmHg 6%
18:00 +43°C° 0 mm 5 m/s 718 mmHg 8%
19:00 +41°C° 0 mm 4 m/s 718 mmHg 10%
20:00 +38°C° 0 mm 3 m/s 718 mmHg 12%
21:00 +36°C° 0 mm 3 m/s 718 mmHg 15%
22:00 +34°C° 0 mm 2 m/s 718 mmHg 18%
23:00 +31°C° 0 mm 2 m/s 718 mmHg 21%

30 Junho, Quarta-feira

Tempo Temperatura Precipitação Vento Pressão Humidade
00:00 +30°C° 0 mm 2 m/s 718 mmHg 23%
01:00 +30°C° 0 mm 2 m/s 718 mmHg 24%
02:00 +29°C° 0 mm 2 m/s 718 mmHg 25%
03:00 +29°C° 0 mm 2 m/s 718 mmHg 26%
04:00 +29°C° 0 mm 2 m/s 718 mmHg 27%
05:00 +28°C° 0 mm 2 m/s 718 mmHg 28%
06:00 +31°C° 0 mm 3 m/s 718 mmHg 25%
07:00 +34°C° 0 mm 3 m/s 719 mmHg 21%
08:00 +36°C° 0 mm 3 m/s 719 mmHg 18%
09:00 +38°C° 0 mm 3 m/s 719 mmHg 16%
10:00 +40°C° 0 mm 3 m/s 719 mmHg 14%
11:00 +43°C° 0 mm 3 m/s 719 mmHg 11%
12:00 +43°C° 0 mm 4 m/s 719 mmHg 10%
13:00 +44°C° 0 mm 4 m/s 718 mmHg 9%
14:00 +45°C° 0 mm 4 m/s 718 mmHg 8%
15:00 +46°C° 0 mm 5 m/s 718 mmHg 7%
16:00 +46°C° 0 mm 5 m/s 717 mmHg 7%
17:00 +46°C° 0 mm 6 m/s 717 mmHg 7%
18:00 +42°C° 0 mm 5 m/s 717 mmHg 10%
19:00 +39°C° 0 mm 5 m/s 717 mmHg 14%
20:00 +36°C° 0 mm 5 m/s 718 mmHg 17%
21:00 +35°C° 0 mm 5 m/s 718 mmHg 19%
22:00 +33°C° 0 mm 4 m/s 718 mmHg 22%
23:00 +32°C° 0 mm 4 m/s 717 mmHg 24%
Mostrar mais